TA3NHM-2 Weather Reports


time (UTC)temp
C
wind
direction
speed
KPH
gust
KPH
rain 1hr
cm
rain 24hr
cm
rain mn
cm
humidity
%
barometer
mb
20260906084158 29 0 0.0 0.0 0.00 0.00 0.00 23 1003.7
20260906074228 26 0 0.0 0.0 0.00 0.00 0.00 38 1003.7
20260906064256 23 0 0.0 0.0 0.00 0.00 0.00 47 1003.7
20260906054332 21 0 0.0 0.0 0.00 0.00 0.00 48 1003.7
20260906044412 21 0 0.0 0.0 0.00 0.00 0.00 50 1003.5
20260906034452 21 0 0.0 0.0 0.00 0.00 0.00 49 1002.9
20260906024532 20 0 0.0 0.0 0.00 0.00 0.00 50 1002.6
20260906014625 22 0 0.0 0.0 0.00 0.00 0.00 44 1002.2
20260906004710 22 0 0.0 0.0 0.00 0.00 0.00 43 1002.3
20260905234755 22 0 0.0 0.0 0.00 0.00 0.00 42 1002.4
20260905224838 23 0 0.0 0.0 0.00 0.00 0.00 40 1002.4
20260905214921 24 0 0.0 0.0 0.00 0.00 0.00 37 1002.6
20260905205006 25 0 0.0 0.0 0.00 0.00 0.00 36 1002.9
20260905195050 26 0 0.0 0.0 0.00 0.00 0.00 34 1002.5
20260905185135 27 0 0.0 0.0 0.00 0.00 0.00 33 1002.3
20260905175218 27 0 0.0 0.0 0.00 0.00 0.00 31 1001.8
20260905165308 28 0 0.0 0.0 0.00 0.00 0.00 33 1001.0
20260905155403 31 0 0.0 0.0 0.00 0.00 0.00 27 1000.1
20260905145451 33 0 0.0 0.0 0.00 0.00 0.00 25 999.8
20260905135535 33 0 0.0 0.0 0.00 0.00 0.00 25 999.7
20260905125612 34 0 0.0 0.0 0.00 0.00 0.00 24 1000.0
20260905115648 33 0 0.0 0.0 0.00 0.00 0.00 25 1000.6
20260905105717 31 0 0.0 0.0 0.00 0.00 0.00 29 1001.2
20260905095746 30 0 0.0 0.0 0.00 0.00 0.00 35 1001.7